Location: Unspecified
(31.8318°N, 0.0000°E)
Time: 04:47:28
(UTC+00:00)

DEMETER - Visible Passes

Search period start: 04 April 2026 00:00
Search period end: 14 April 2026 00:00
Orbit: 617 x 620 km, 98.1° (Epoch: 29 March)

Date Brightness Start Highest point End Pass type
(mag) Time Alt. Az. Time Alt. Az. Time Alt. Az.
4 Apr 9.9 03:14:46 10° ENE 03:17:11 15° E 03:19:35 10° SE visible
4 Apr 7.7 04:49:21 10° N 04:53:17 35° WNW 04:57:12 10° SW visible
5 Apr 9.3 03:30:30 10° NE 03:33:57 23° E 03:37:22 10° SSE visible
5 Apr 8.3 05:06:27 10° NNW 05:09:50 23° WNW 05:13:14 10° WSW visible
6 Apr 8.5 03:46:41 10° NNE 03:50:41 36° E 03:54:23 12° SSE visible
7 Apr 7.5 04:03:06 10° NNE 04:07:22 59° E 04:11:23 11° S visible
8 Apr 7.0 04:19:42 10° N 04:24:02 84° W 04:28:20 10° SSW visible
9 Apr 7.2 04:36:27 10° N 04:40:38 52° WNW 04:44:49 10° SSW visible
10 Apr 9.8 03:18:29 10° ENE 03:21:09 16° E 03:23:49 10° SE visible
10 Apr 7.8 04:53:22 10° N 04:57:13 32° WNW 05:01:03 10° SW visible
11 Apr 9.1 03:34:18 10° NE 03:37:54 25° E 03:41:27 10° SSE visible
11 Apr 8.4 05:10:30 10° NNW 05:13:44 21° WNW 05:16:59 10° WSW visible
12 Apr 8.3 03:50:31 10° NNE 03:54:35 40° E 03:58:38 10° S visible
13 Apr 7.4 04:06:56 10° NNE 04:11:14 65° ESE 04:15:30 10° S visible
